DELTA 1 DEB, 7022

Orbit data source: Space-Track

DELTA 1 DEB, 7022 is space debris in SSO originally from a launch on Tue, 06 Nov 1973 UTC launched from the Air Force Western Test Range (AFWTR). Debris objects in space refer to the collection of defunct objects orbiting the Earth. Examples of debris include non-operational satellites, rocket bodies, and fragments generated from explosions, collisions, or faulty payload assembly.

Loading next visibility...
Identifier
7022, 1973-086N
Orbit
SSO
Country
Flag of USUS
Related business
Manufacturer
Unknown
Mission
Spacecraft
Bus & Motor
Unknown
Mass
Unknown
Launch date (UTC)
1973-11-06 (52 years ago)
Launch vehicle
Unknown
Launch site
Air Force Western Test Range (AFWTR)
Object type
Payload
Rocket body
Debris
Shape & HBR
Unknown shape, 0.2 m
Radar Cross Section
Medium (>0.1 m² and <1 m²)

Expand to show TLE details & history
Last TLE update: 8 hours ago

TLE from 8 hours ago
0 DELTA 1 DEB
1 07022U 73086N   25346.95162829 -.00000103  00000-0 -36628-3 0  9991
2 07022 102.3446  58.6935 0184517 225.9357 309.6791 12.44408796365507
Epoch: 2025-12-12T22:50Z
TLE epoch observation values (Epoch: 2025-12-12T22:50:20.684Z)
Latitude
5.8249°
Longitude
175.49439°
Altitude
1,398.876 km
Speed
7.202 km/s
True Right ascension
15h 59m 51s
True Declination
5° 47' 35"
Sunlit
Object was in daylight at epoch
Visualization orbit readout
Latitude
Unknown
Longitude
Unknown
Altitude
Unknown
Speed
Unknown
Apparent Right ascension
Unknown
Apparent Declination
Unknown
Sunlit
N/A
Visualization observer readout
Local Sidereal Time
05:23:39
Azimuth
Unknown
Elevation
Unknown
Doppler factor
Unknown
Orbital elements
Apogee altitude
1,630.656 km
Perigee altitude
1,340.459 km
Semi-major axis
7,863.695 km
Eccentricity
0.01845
Inclination
102.3446°
RAAN
58.6935°
Arg. of periapsis
225.9357°
True anomaly
308.0277°
Mean anomaly
309.6791°
Eccentric anomaly
308.85583°
Mean motion
3.11246 °/min
Orbital period
115.66 mins
BSTAR
-0.00036628
Loading maneuver chart data...
Computing Atmospheric mass density...
Loading historical data...
Loading historical data...
Loading historical data...
Loading historical data...
Loading historical data...
Loading historical data...
Loading historical data...

Documentation

Showing up to 5 results
|